Location: Colle San Luigi
(43.5500°N, 13.4167°E)
Time: 11:26:19
(UTC+00:00)

Cosmos 1300 - Pass Details

Date: 09 April 2020
Orbit: 511 x 515 km, 82.5° (Epoch: 03 June)

Event Time Altitude Azimuth Distance (km) Brightness Sun altitude
Exits shadow 18:43:23 12° 147° (SSE) 1,624 4.7 -11.3°
Maximum altitude 18:46:19 28° 90° (E) 1,002 3.6 -11.8°
Drops below altitude 10° 18:49:36 10° 31° (NNE) 1,749 5.3 -12.3°
Sets 18:51:57 0° 20° (NNE) 2,642 6.4 -12.7°
